Weather History for Mosinee, WI

Change the Weather History Date:

Saturday, June 15, 2013

  Actual Average Record
Temperature  
Mean Temperature 65 °F -  
Max Temperature 73 °F 72 °F 87 °F (2007)
Min Temperature 57 °F 51 °F 37 °F (1999)
Growing Degree Days 15 (Base 50)    
Moisture  
Dew Point 60 °F    
Average Humidity 93    
Maximum Humidity 100    
Minimum Humidity 77    
Precipitation  
Precipitation 0.13 in - - ()
Sea Level Pressure  
Sea Level Pressure 29.95 in    
Wind  
Wind Speed 6 mph (South)    
Max Wind Speed 24 mph    
Max Gust Speed 33 mph    
Visibility 8 miles    
Events Rain , Thunderstorm    
Averages and records for this station are not official NWS values.
T = Trace of Precipitation, MM = Missing Value Source: NWS Daily Summary

Daily Weather History Graph

Daily Weather History Graph

Search for Another Location

Airport:

Trip Planner

Search our weather history database for the weather conditions in past years. The results will help you decide how hot, cold, wet, or windy it might be!

Date:

Astronomy

Jun. 15, 2013 Rise Set
Actual Time 5:12 AM CDT 8:46 PM CDT
Civil Twilight 4:35 AM CDT 9:23 PM CDT
Nautical Twilight 3:45 AM CDT 10:12 PM CDT
Astronomical Twilight 2:41 AM CDT 11:17 PM CDT
Moon 12:02 PM CDT (6/15) 12:07 AM CDT (6/15)
Length of Visible Light 16h 48m
Length of Day
15h 34m
Waxing Crescent, 40% of the Moon is Illuminated
Jun 15
Waxing Crescent
Jun 16
First Quarter
Jun 23
Full
Jun 29
Last Quarter
Jul 8
New

Hourly Weather History & Observations

Time (CDT) Temp. Dew Point Humidity Pressure Visibility Wind Dir Wind Speed Gust Speed Precip Events Conditions
12:15 AM 60.8 °F 53.6 °F 77% 30.02 in 10.0 mi SE 4.6 mph - N/A   Scattered Clouds
12:35 AM 60.8 °F 55.4 °F 82% 30.02 in 10.0 mi South 6.9 mph - N/A   Clear
12:55 AM 60.8 °F 55.4 °F 82% 30.03 in 10.0 mi SSE 6.9 mph - N/A Rain Light Rain
1:15 AM 59.0 °F 55.4 °F 88% 30.01 in 10.0 mi ENE 5.8 mph - N/A Rain , Thunderstorm Light Thunderstorms and Rain
1:35 AM 59.0 °F 55.4 °F 88% 30.03 in 10.0 mi SE 3.5 mph - N/A   Scattered Clouds
1:55 AM 57.2 °F 55.4 °F 94% 30.04 in 10.0 mi SW 4.6 mph - N/A Thunderstorm Thunderstorm
2:15 AM 57.2 °F 55.4 °F 94% 30.03 in 10.0 mi South 3.5 mph - N/A   Scattered Clouds
2:35 AM 59.0 °F 57.2 °F 94% 30.03 in 10.0 mi SSW 12.7 mph - N/A Rain Light Rain
2:55 AM 59.0 °F 55.4 °F 88% 29.98 in 5.0 mi SSW 24.2 mph 33.4 mph 0.06 in Rain Light Rain
3:15 AM 59.0 °F 57.2 °F 94% 30.02 in 7.0 mi Calm Calm - 0.03 in Rain Rain
3:35 AM 59.0 °F 57.2 °F 94% 29.97 in 10.0 mi South 11.5 mph - 0.03 in Rain Light Rain
3:55 AM 59.0 °F 57.2 °F 94% 29.99 in 10.0 mi NE 3.5 mph - 0.04 in   Scattered Clouds
4:15 AM 59.0 °F 57.2 °F 94% 30.00 in 10.0 mi ENE 6.9 mph - N/A   Mostly Cloudy
4:35 AM 57.2 °F 57.2 °F 100% 29.98 in 10.0 mi East 4.6 mph - N/A Rain Rain
4:55 AM 57.2 °F 57.2 °F 100% 29.97 in 7.0 mi East 3.5 mph - 0.03 in Rain Light Rain
5:15 AM 57.2 °F 57.2 °F 100% 29.97 in 10.0 mi ESE 4.6 mph - N/A   Scattered Clouds
5:35 AM 57.2 °F 57.2 °F 100% 29.97 in 7.0 mi ESE 4.6 mph - N/A Rain Light Rain
5:45 AM 57.2 °F 57.2 °F 100% 29.97 in 7.0 mi ESE 5.8 mph - N/A Rain Light Rain
6:45 AM 59.0 °F 59.0 °F 100% 29.96 in 7.0 mi SE 8.1 mph - N/A   Overcast
7:45 AM 60.8 °F 60.8 °F 100% 29.96 in 7.0 mi SE 5.8 mph - N/A   Overcast
8:45 AM 60.8 °F 60.8 °F 100% 29.96 in 5.0 mi ESE 4.6 mph - N/A   Overcast
9:45 AM 62.6 °F 62.6 °F 100% 29.96 in 7.0 mi South 8.1 mph - N/A   Overcast
10:45 AM 66.2 °F 64.4 °F 94% 29.96 in 10.0 mi SSW 6.9 mph - N/A   Overcast
11:45 AM 64.4 °F 64.4 °F 100% 29.96 in 10.0 mi SSE 4.6 mph - N/A Rain Light Rain
12:45 PM 69.8 °F 66.2 °F 88% 29.95 in 10.0 mi South 5.8 mph - N/A   Overcast
1:50 PM 71.6 °F 66.2 °F 83% 29.96 in 7.0 mi SSW 5.8 mph - N/A   Overcast
2:45 PM 71.6 °F 66.2 °F 83% 29.93 in 7.0 mi SW 8.1 mph - N/A   Overcast
3:45 PM 73.4 °F 66.2 °F 78% 29.90 in 7.0 mi WSW 3.5 mph - N/A   Overcast
4:45 PM 73.4 °F 66.2 °F 78% 29.87 in 7.0 mi WSW 4.6 mph - N/A   Scattered Clouds
5:45 PM 71.6 °F 66.2 °F 83% 29.86 in 10.0 mi WNW 4.6 mph - N/A   Mostly Cloudy
7:30 PM 69.8 °F 66.2 °F 88% 29.85 in 5.0 mi NNW 10.4 mph - N/A Rain , Thunderstorm Thunderstorms and Rain
8:45 PM 64.4 °F 64.4 °F 100% 29.85 in 7.0 mi East 6.9 mph - N/A   Mostly Cloudy
9:45 PM 62.6 °F 62.6 °F 100% 29.87 in 7.0 mi West 4.6 mph - N/A   Clear
10:15 PM 60.8 °F 60.8 °F 100% 29.88 in 7.0 mi West 6.9 mph - N/A   Scattered Clouds
10:35 PM 60.8 °F 60.8 °F 100% 29.88 in 7.0 mi West 10.4 mph - N/A   Mostly Cloudy
10:55 PM 60.8 °F 60.8 °F 100% 29.87 in 10.0 mi West 5.8 mph - N/A   Scattered Clouds
11:15 PM 59.0 °F 59.0 °F 100% 29.88 in 7.0 mi West 4.6 mph - N/A   Clear
11:35 PM 59.0 °F 59.0 °F 100% 29.87 in 7.0 mi WNW 8.1 mph - N/A   Clear
11:55 PM 59.0 °F 59.0 °F 100% 29.88 in 7.0 mi West 6.9 mph - N/A   Clear